,,,PA_Meas_PMT16A,,PR_Meas_QMR101_102,,RH_Meas_QMH101,,SR_Meas_QMS101,,TA_Meas_QMH101,,GenWind,,GenWind,
date,time,status,PA,status,PR,status,RH,status,SR,status,TA,status,DirAvg,status,SpdAvg,
2009-12-02, 00:00:04,VALID,1011.96,VALID,0,VALID,52.6329,VALID,0,VALID,23.6356,VALID,83,VALID,0.571484,
2009-12-02, 00:01:04,VALID,1011.94,VALID,0,VALID,52.6558,VALID,0,VALID,23.6356,VALID,88,VALID,0.949609,
2009-12-02, 00:02:04,VALID,1011.93,VALID,0,VALID,52.6482,VALID,0,VALID,23.6356,VALID,78,VALID,0.770312,
2009-12-02, 00:03:04,VALID,1011.95,VALID,0,VALID,52.6711,VALID,0,VALID,23.655,VALID,78,VALID,0.519922,
2009-12-02, 00:04:04,VALID,1011.92,VALID,0,VALID,52.6482,VALID,0,VALID,23.655,VALID,78,VALID,0.428906,
2009-12-02, 00:05:04,VALID,1011.93,VALID,0,VALID,52.6329,VALID,0,VALID,23.655,VALID,88,VALID,0.473437,
2009-12-02, 00:06:04,VALID,1011.92,VALID,0,VALID,52.6253,VALID,0,VALID,23.6745,VALID,72,VALID,0.525391,
2009-12-02, 00:07:04,VALID,1011.88,VALID,0,VALID,52.6635,VALID,0,VALID,23.6338,VALID,75,VALID,0.729297,
2009-12-02, 00:08:04,VALID,1011.87,VALID,0,VALID,52.6787,VALID,0,VALID,23.6356,VALID,74,VALID,0.670313,
2009-12-02, 00:09:04,VALID,1011.85,VALID,0,VALID,52.694,VALID,0.105969,VALID,23.6356,VALID,90,VALID,0.667578,
2009-12-02, 00:10:04,VALID,1011.82,VALID,0,VALID,52.6863,VALID,0,VALID,23.6161,VALID,83,VALID,0.572656,
2009-12-02, 00:11:04,VALID,1011.81,VALID,0,VALID,52.6787,VALID,0,VALID,23.6356,VALID,81,VALID,0.538281,
2009-12-02, 00:12:04,VALID,1011.82,VALID,0,VALID,52.7168,VALID,0,VALID,23.6161,VALID,80,VALID,0.426562,
2009-12-02, 00:13:04,VALID,1011.79,VALID,0,VALID,52.6711,VALID,0,VALID,23.6161,VALID,80,VALID,0,
2009-12-02, 00:14:04,VALID,1011.79,VALID,0,VALID,52.6787,VALID,0,VALID,23.6161,VALID,80,VALID,0,
2009-12-02, 00:15:04,VALID,1011.77,VALID,0,VALID,52.7245,VALID,0,VALID,23.5966,VALID,52,VALID,0,
2009-12-02, 00:16:04,VALID,1011.75,VALID,0,VALID,52.7016,VALID,0,VALID,23.5966,VALID,52,VALID,0,
2009-12-02, 00:17:04,VALID,1011.72,VALID,0,VALID,52.7168,VALID,0,VALID,23.5771,VALID,52,VALID,0,
2009-12-02, 00:18:04,VALID,1011.73,VALID,0,VALID,52.7016,VALID,0,VALID,23.5966,VALID,52,VALID,0,
2009-12-02, 00:19:04,VALID,1011.71,VALID,0,VALID,52.694,VALID,0,VALID,23.5771,VALID,52,VALID,0,
2009-12-02, 00:20:04,VALID,1011.72,VALID,0,VALID,52.6863,VALID,0,VALID,23.5771,VALID,66,VALID,0,
2009-12-02, 00:21:04,VALID,1011.71,VALID,0,VALID,52.6482,VALID,0,VALID,23.5966,VALID,104,VALID,0,
2009-12-02, 00:22:04,VALID,1011.7,VALID,0,VALID,52.6558,VALID,0,VALID,23.5966,VALID,107,VALID,0,
2009-12-02, 00:23:04,VALID,1011.7,VALID,0,VALID,52.6253,VALID,0,VALID,23.5753,VALID,108,VALID,0.0425781,
2009-12-02, 00:24:04,VALID,1011.7,VALID,0,VALID,52.6482,VALID,0,VALID,23.5966,VALID,121,VALID,0.544141,
2009-12-02, 00:25:04,VALID,1011.68,VALID,0,VALID,52.6635,VALID,0.105969,VALID,23.5753,VALID,120,VALID,0.863672,
2009-12-02, 00:26:04,VALID,1011.68,VALID,0,VALID,52.6406,VALID,0,VALID,23.5948,VALID,108,VALID,0.593359,
2009-12-02, 00:27:04,VALID,1011.69,VALID,0,VALID,52.6711,VALID,0,VALID,23.5771,VALID,133,VALID,0.639063,
2009-12-02, 00:28:04,VALID,1011.68,VALID,0,VALID,52.6635,VALID,0,VALID,23.5771,VALID,135,VALID,0.830078,
2009-12-02, 00:29:04,VALID,1011.67,VALID,0,VALID,52.7092,VALID,0,VALID,23.5576,VALID,139,VALID,0.926172,
2009-12-02, 00:30:04,VALID,1011.66,VALID,0,VALID,52.7092,VALID,0,VALID,23.5363,VALID,135,VALID,0.756641,
2009-12-02, 00:31:04,VALID,1011.69,VALID,0,VALID,52.7321,VALID,0,VALID,23.5363,VALID,128,VALID,0.541406,
2009-12-02, 00:32:04,VALID,1011.62,VALID,0,VALID,52.7397,VALID,0,VALID,23.5576,VALID,102,VALID,1.09766,
2009-12-02, 00:33:04,VALID,1011.63,VALID,0,VALID,52.7092,VALID,0,VALID,23.5381,VALID,109,VALID,1.11914,
2009-12-02, 00:34:04,VALID,1011.62,VALID,0,VALID,52.7092,VALID,0,VALID,23.5381,VALID,106,VALID,1.05742,
2009-12-02, 00:35:04,VALID,1011.62,VALID,0,VALID,52.694,VALID,0,VALID,23.5381,VALID,116,VALID,1.14805,
2009-12-02, 00:36:04,VALID,1011.6,VALID,0,VALID,52.7397,VALID,0,VALID,23.4974,VALID,116,VALID,0.983984,
2009-12-02, 00:37:04,VALID,1011.59,VALID,0,VALID,52.7321,VALID,0,VALID,23.4974,VALID,112,VALID,0.872656,
2009-12-02, 00:38:04,VALID,1011.6,VALID,0,VALID,52.7092,VALID,0,VALID,23.4974,VALID,111,VALID,0.948047,
2009-12-02, 00:39:04,VALID,1011.6,VALID,0,VALID,52.7626,VALID,0,VALID,23.5186,VALID,102,VALID,1.19023,
2009-12-02, 00:40:04,VALID,1011.54,VALID,0,VALID,52.7245,VALID,0,VALID,23.4974,VALID,104,VALID,0.912891,
2009-12-02, 00:41:04,VALID,1011.53,VALID,0,VALID,52.755,VALID,0,VALID,23.4974,VALID,119,VALID,0.708984,
2009-12-02, 00:42:04,VALID,1011.54,VALID,0,VALID,52.755,VALID,0,VALID,23.5381,VALID,115,VALID,0.227344,
2009-12-02, 00:43:04,VALID,1011.49,VALID,0,VALID,52.6863,VALID,0,VALID,23.5381,VALID,117,VALID,0.769141,
2009-12-02, 00:44:04,VALID,1011.49,VALID,0,VALID,52.7245,VALID,0,VALID,23.5186,VALID,141,VALID,0.511328,
2009-12-02, 00:45:04,VALID,1011.47,VALID,0,VALID,52.7778,VALID,0,VALID,23.5186,VALID,149,VALID,0.844922,
2009-12-02, 00:46:04,VALID,1011.47,VALID,0,VALID,52.755,VALID,0.105969,VALID,23.4974,VALID,144,VALID,0.558594,
2009-12-02, 00:47:04,VALID,1011.42,VALID,0,VALID,52.7702,VALID,0,VALID,23.4797,VALID,125,VALID,0.900391,
2009-12-02, 00:48:04,VALID,1011.43,VALID,0,VALID,52.7702,VALID,0,VALID,23.4797,VALID,148,VALID,1.01602,
2009-12-02, 00:49:04,VALID,1011.41,VALID,0,VALID,52.7397,VALID,0,VALID,23.4602,VALID,137,VALID,0.74375,
2009-12-02, 00:50:04,VALID,1011.41,VALID,0,VALID,52.7855,VALID,0,VALID,23.4602,VALID,136,VALID,0.784766,
2009-12-02, 00:51:04,VALID,1011.4,VALID,0,VALID,52.7931,VALID,0,VALID,23.4602,VALID,119,VALID,0.446875,
2009-12-02, 00:52:04,VALID,1011.39,VALID,0,VALID,52.7855,VALID,0.105969,VALID,23.4602,VALID,137,VALID,0.684766,
2009-12-02, 00:53:04,VALID,1011.34,VALID,0,VALID,52.7778,VALID,0,VALID,23.4389,VALID,125,VALID,0.684375,
2009-12-02, 00:54:04,VALID,1011.35,VALID,0,VALID,52.816,VALID,0,VALID,23.4407,VALID,126,VALID,0.65,
2009-12-02, 00:55:04,VALID,1011.36,VALID,0,VALID,52.8388,VALID,0,VALID,23.4194,VALID,126,VALID,0.375,
2009-12-02, 00:56:04,VALID,1011.32,VALID,0,VALID,52.8007,VALID,0.105969,VALID,23.4407,VALID,139,VALID,0.464844,
2009-12-02, 00:57:04,VALID,1011.32,VALID,0,VALID,52.8388,VALID,0,VALID,23.4407,VALID,136,VALID,0.769141,
2009-12-02, 00:58:04,VALID,1011.3,VALID,0,VALID,52.8617,VALID,0,VALID,23.4,VALID,132,VALID,0.81875,
2009-12-02, 00:59:04,VALID,1011.27,VALID,0,VALID,52.8388,VALID,0,VALID,23.4212,VALID,117,VALID,0.601172,
2009-12-02, 01:00:04,VALID,1011.23,VALID,0,VALID,52.8388,VALID,0,VALID,23.4017,VALID,146,VALID,0.871484,
2009-12-02, 01:01:04,VALID,1011.25,VALID,0,VALID,52.8617,VALID,0,VALID,23.4,VALID,137,VALID,0.813672,
2009-12-02, 01:02:04,VALID,1011.22,VALID,0,VALID,52.8694,VALID,0.105969,VALID,23.4212,VALID,135,VALID,0.890234,
2009-12-02, 01:03:04,VALID,1011.24,VALID,0,VALID,52.8541,VALID,0,VALID,23.4212,VALID,136,VALID,0.860547,
2009-12-02, 01:04:04,VALID,1011.22,VALID,0,VALID,52.8388,VALID,0,VALID,23.3805,VALID,142,VALID,0.994531,
2009-12-02, 01:05:04,VALID,1011.18,VALID,0,VALID,52.8465,VALID,0,VALID,23.3805,VALID,120,VALID,0.884766,
2009-12-02, 01:06:04,VALID,1011.18,VALID,0,VALID,52.8388,VALID,0,VALID,23.4,VALID,105,VALID,0.699219,
2009-12-02, 01:07:04,VALID,1011.17,VALID,0,VALID,52.816,VALID,0,VALID,23.4407,VALID,105,VALID,0,
2009-12-02, 01:08:04,VALID,1011.17,VALID,0,VALID,52.8007,VALID,0,VALID,23.4602,VALID,105,VALID,0.118359,
2009-12-02, 01:09:04,VALID,1011.13,VALID,0,VALID,52.8541,VALID,0,VALID,23.4194,VALID,110,VALID,1.01992,
2009-12-02, 01:10:04,VALID,1011.12,VALID,0,VALID,52.8465,VALID,0,VALID,23.4602,VALID,88,VALID,0.848047,
2009-12-02, 01:11:04,VALID,1011.11,VALID,0,VALID,52.8388,VALID,0,VALID,23.4407,VALID,97,VALID,0.85,
2009-12-02, 01:12:04,VALID,1011.11,VALID,0,VALID,52.8007,VALID,0,VALID,23.4602,VALID,107,VALID,0.796484,
2009-12-02, 01:13:04,VALID,1011.09,VALID,0,VALID,52.8007,VALID,0,VALID,23.4602,VALID,82,VALID,1.01445,
2009-12-02, 01:14:04,VALID,1011.1,VALID,0,VALID,52.7855,VALID,0,VALID,23.4602,VALID,76,VALID,0.670703,
2009-12-02, 01:15:04,VALID,1011.08,VALID,0,VALID,52.7626,VALID,0,VALID,23.4797,VALID,73,VALID,0.513281,
2009-12-02, 01:16:04,VALID,1011.07,VALID,0,VALID,52.7778,VALID,0,VALID,23.4797,VALID,72,VALID,0.558594,
2009-12-02, 01:17:04,VALID,1011.09,VALID,0,VALID,52.7931,VALID,0,VALID,23.4797,VALID,75,VALID,0.250781,
2009-12-02, 01:18:04,VALID,1011.05,VALID,0,VALID,52.8541,VALID,0,VALID,23.4602,VALID,78,VALID,0.417578,
2009-12-02, 01:19:04,VALID,1011.03,VALID,0,VALID,52.8236,VALID,0,VALID,23.4797,VALID,75,VALID,0.789453,
2009-12-02, 01:20:04,VALID,1011.03,VALID,0,VALID,52.8541,VALID,0,VALID,23.4797,VALID,73,VALID,0.485156,
2009-12-02, 01:21:04,VALID,1011,VALID,0,VALID,52.8083,VALID,0,VALID,23.4584,VALID,76,VALID,0.437891,
2009-12-02, 01:22:04,VALID,1010.99,VALID,0,VALID,52.8083,VALID,0,VALID,23.4602,VALID,65,VALID,0.770312,
2009-12-02, 01:23:04,VALID,1011,VALID,0,VALID,52.7778,VALID,0,VALID,23.4602,VALID,78,VALID,0.458984,
2009-12-02, 01:24:04,VALID,1010.99,VALID,0,VALID,52.7702,VALID,0,VALID,23.4194,VALID,78,VALID,0.473047,
2009-12-02, 01:25:04,VALID,1011,VALID,0,VALID,52.7855,VALID,0,VALID,23.4602,VALID,78,VALID,0.4875,
2009-12-02, 01:26:04,VALID,1010.98,VALID,0,VALID,52.7855,VALID,0,VALID,23.4389,VALID,78,VALID,0.258984,
2009-12-02, 01:27:04,VALID,1010.97,VALID,0,VALID,52.7778,VALID,0,VALID,23.4797,VALID,78,VALID,0,
2009-12-02, 01:28:04,VALID,1011,VALID,0,VALID,52.8083,VALID,0,VALID,23.4602,VALID,140,VALID,0.876172,
2009-12-02, 01:29:04,VALID,1010.99,VALID,0,VALID,52.8083,VALID,0,VALID,23.4602,VALID,143,VALID,0.666797,
2009-12-02, 01:30:04,VALID,1010.97,VALID,0,VALID,52.8007,VALID,0,VALID,23.4407,VALID,143,VALID,0.311328,
2009-12-02, 01:31:04,VALID,1010.96,VALID,0,VALID,52.8236,VALID,0.105969,VALID,23.4194,VALID,143,VALID,0.123047,
2009-12-02, 01:32:04,VALID,1010.93,VALID,0,VALID,52.8007,VALID,0,VALID,23.4602,VALID,143,VALID,0,
2009-12-02, 01:33:04,VALID,1010.91,VALID,0,VALID,52.8083,VALID,0,VALID,23.4407,VALID,143,VALID,0.291406,
2009-12-02, 01:34:04,VALID,1010.93,VALID,0,VALID,52.8312,VALID,0.105969,VALID,23.4407,VALID,143,VALID,0.0636719,
2009-12-02, 01:35:04,VALID,1010.94,VALID,0,VALID,52.8236,VALID,0,VALID,23.4,VALID,143,VALID,0.25625,
2009-12-02, 01:36:04,VALID,1010.92,VALID,0,VALID,52.7931,VALID,0,VALID,23.4212,VALID,134,VALID,0.758984,
2009-12-02, 01:37:04,VALID,1010.91,VALID,0,VALID,52.8007,VALID,0,VALID,23.4,VALID,132,VALID,0.730469,
2009-12-02, 01:38:04,VALID,1010.91,VALID,0,VALID,52.7855,VALID,0,VALID,23.4194,VALID,130,VALID,0.572656,
2009-12-02, 01:39:04,VALID,1010.87,VALID,0,VALID,52.7778,VALID,0.105969,VALID,23.4407,VALID,136,VALID,0.761719,
2009-12-02, 01:40:04,VALID,1010.85,VALID,0,VALID,52.7702,VALID,0.105969,VALID,23.4389,VALID,132,VALID,0.445313,
2009-12-02, 01:41:04,VALID,1010.86,VALID,0,VALID,52.7168,VALID,0,VALID,23.4407,VALID,112,VALID,0.274219,
2009-12-02, 01:42:04,VALID,1010.85,VALID,0,VALID,52.7168,VALID,0,VALID,23.462,VALID,120,VALID,0.238281,
2009-12-02, 01:43:04,VALID,1010.81,VALID,0,VALID,52.7092,VALID,0,VALID,23.462,VALID,136,VALID,0.798437,
2009-12-02, 01:44:04,VALID,1010.79,VALID,0,VALID,52.7245,VALID,0,VALID,23.4815,VALID,136,VALID,0.732422,
2009-12-02, 01:45:04,VALID,1010.79,VALID,0,VALID,52.7321,VALID,0,VALID,23.4407,VALID,134,VALID,0.333594,
2009-12-02, 01:46:04,VALID,1010.79,VALID,0,VALID,52.7245,VALID,0,VALID,23.4815,VALID,128,VALID,1.14453,
2009-12-02, 01:47:04,VALID,1010.77,VALID,0,VALID,52.6711,VALID,0,VALID,23.4407,VALID,128,VALID,0.567578,
2009-12-02, 01:48:04,VALID,1010.76,VALID,0,VALID,52.7245,VALID,0,VALID,23.4407,VALID,140,VALID,0.835938,
2009-12-02, 01:49:04,VALID,1010.76,VALID,0,VALID,52.7168,VALID,0,VALID,23.4407,VALID,132,VALID,0.623828,
2009-12-02, 01:50:04,VALID,1010.77,VALID,0,VALID,52.6863,VALID,0,VALID,23.4815,VALID,122,VALID,0.0535156,
2009-12-02, 01:51:04,VALID,1010.72,VALID,0,VALID,52.7016,VALID,0,VALID,23.4815,VALID,122,VALID,0.392188,
2009-12-02, 01:52:04,VALID,1010.73,VALID,0,VALID,52.7168,VALID,0,VALID,23.5009,VALID,126,VALID,0.393359,
2009-12-02, 01:53:04,VALID,1010.72,VALID,0,VALID,52.7626,VALID,0,VALID,23.4797,VALID,126,VALID,0.298047,
2009-12-02, 01:54:04,VALID,1010.72,VALID,0,VALID,52.7245,VALID,0,VALID,23.4797,VALID,131,VALID,0.619922,
2009-12-02, 01:55:04,VALID,1010.71,VALID,0,VALID,52.7321,VALID,0,VALID,23.4602,VALID,136,VALID,0.468359,
2009-12-02, 01:56:04,VALID,1010.71,VALID,0,VALID,52.7016,VALID,0,VALID,23.4602,VALID,136,VALID,0.143359,
2009-12-02, 01:57:04,VALID,1010.69,VALID,0,VALID,52.7168,VALID,0,VALID,23.4602,VALID,135,VALID,1.03008,
2009-12-02, 01:58:04,VALID,1010.67,VALID,0,VALID,52.694,VALID,0,VALID,23.4602,VALID,127,VALID,0.984766,
2009-12-02, 01:59:04,VALID,1010.63,VALID,0,VALID,52.7778,VALID,0,VALID,23.4407,VALID,166,VALID,0.834375,
2009-12-02, 02:00:04,VALID,1010.65,VALID,0,VALID,52.755,VALID,0,VALID,23.4815,VALID,138,VALID,0.797656,
2009-12-02, 02:01:04,VALID,1010.64,VALID,0,VALID,52.6863,VALID,0,VALID,23.4815,VALID,138,VALID,0.457422,
2009-12-02, 02:02:04,VALID,1010.64,VALID,0,VALID,52.7245,VALID,0,VALID,23.4407,VALID,144,VALID,0.858984,
2009-12-02, 02:03:04,VALID,1010.63,VALID,0,VALID,52.7321,VALID,0,VALID,23.4407,VALID,121,VALID,0.807813,
2009-12-02, 02:04:04,VALID,1010.61,VALID,0,VALID,52.7168,VALID,0,VALID,23.4407,VALID,128,VALID,0.723047,
2009-12-02, 02:05:04,VALID,1010.63,VALID,0,VALID,52.7702,VALID,0,VALID,23.4407,VALID,128,VALID,0.408203,
2009-12-02, 02:06:04,VALID,1010.6,VALID,0,VALID,52.7778,VALID,0,VALID,23.4602,VALID,143,VALID,0.909375,
2009-12-02, 02:07:04,VALID,1010.6,VALID,0,VALID,52.7855,VALID,0,VALID,23.4602,VALID,139,VALID,0.943359,
2009-12-02, 02:08:04,VALID,1010.57,VALID,0,VALID,52.755,VALID,0,VALID,23.4407,VALID,141,VALID,0.917578,
2009-12-02, 02:09:04,VALID,1010.55,VALID,0,VALID,52.7626,VALID,0,VALID,23.462,VALID,138,VALID,0.604297,
2009-12-02, 02:10:04,VALID,1010.51,VALID,0,VALID,52.7473,VALID,0,VALID,23.462,VALID,146,VALID,0.95,
2009-12-02, 02:11:04,VALID,1010.52,VALID,0,VALID,52.755,VALID,0,VALID,23.462,VALID,132,VALID,1.24727,
2009-12-02, 02:12:04,VALID,1010.47,VALID,0,VALID,52.7321,VALID,0,VALID,23.4212,VALID,130,VALID,1.12695,
2009-12-02, 02:13:04,VALID,1010.43,VALID,0,VALID,52.7702,VALID,0,VALID,23.4017,VALID,129,VALID,1.19687,
2009-12-02, 02:14:04,VALID,1010.42,VALID,0,VALID,52.7473,VALID,0,VALID,23.4017,VALID,124,VALID,1.3082,
2009-12-02, 02:15:04,VALID,1010.4,VALID,0,VALID,52.755,VALID,0,VALID,23.4212,VALID,120,VALID,1.25234,
2009-12-02, 02:16:04,VALID,1010.4,VALID,0,VALID,52.7778,VALID,0,VALID,23.4212,VALID,128,VALID,1.66875,
2009-12-02, 02:17:04,VALID,1010.39,VALID,0,VALID,52.694,VALID,0,VALID,23.4425,VALID,109,VALID,1.03398,
2009-12-02, 02:18:04,VALID,1010.37,VALID,0,VALID,52.7397,VALID,0,VALID,23.423,VALID,110,VALID,1.15117,
2009-12-02, 02:19:04,VALID,1010.35,VALID,0,VALID,52.755,VALID,0,VALID,23.462,VALID,135,VALID,0.801172,
2009-12-02, 02:20:04,VALID,1010.34,VALID,0,VALID,52.7626,VALID,0,VALID,23.4017,VALID,134,VALID,1.42383,
2009-12-02, 02:21:04,VALID,1010.36,VALID,0,VALID,52.755,VALID,0,VALID,23.423,VALID,141,VALID,1.1457,
2009-12-02, 02:22:04,VALID,1010.36,VALID,0,VALID,52.8236,VALID,0,VALID,23.423,VALID,146,VALID,1.46367,
2009-12-02, 02:23:04,VALID,1010.32,VALID,0,VALID,52.8541,VALID,0,VALID,23.4425,VALID,140,VALID,0.70625,
2009-12-02, 02:24:04,VALID,1010.33,VALID,0,VALID,52.8541,VALID,0,VALID,23.4425,VALID,109,VALID,0.233984,
2009-12-02, 02:25:04,VALID,1010.32,VALID,0,VALID,52.8236,VALID,0,VALID,23.4212,VALID,130,VALID,0.465625,
2009-12-02, 02:26:04,VALID,1010.3,VALID,0,VALID,52.8007,VALID,0,VALID,23.4407,VALID,107,VALID,0.679297,
2009-12-02, 02:27:04,VALID,1010.28,VALID,0,VALID,52.7778,VALID,0,VALID,23.4407,VALID,107,VALID,0.582422,
2009-12-02, 02:28:04,VALID,1010.29,VALID,0,VALID,52.7626,VALID,0,VALID,23.4389,VALID,111,VALID,0.886328,
2009-12-02, 02:29:04,VALID,1010.26,VALID,0,VALID,52.7473,VALID,0,VALID,23.4212,VALID,100,VALID,1.02422,
2009-12-02, 02:30:04,VALID,1010.28,VALID,0,VALID,52.7931,VALID,0,VALID,23.4212,VALID,106,VALID,1.11641,
2009-12-02, 02:31:04,VALID,1010.27,VALID,0,VALID,52.8083,VALID,0,VALID,23.4212,VALID,106,VALID,0.987109,
2009-12-02, 02:32:04,VALID,1010.28,VALID,0,VALID,52.7702,VALID,0,VALID,23.4212,VALID,92,VALID,0.851172,
2009-12-02, 02:33:04,VALID,1010.26,VALID,0,VALID,52.7778,VALID,0,VALID,23.4212,VALID,99,VALID,0.675,
2009-12-02, 02:34:04,VALID,1010.28,VALID,0,VALID,52.755,VALID,0,VALID,23.4212,VALID,100,VALID,1.06914,
2009-12-02, 02:35:04,VALID,1010.27,VALID,0,VALID,52.694,VALID,0,VALID,23.4,VALID,104,VALID,1.02227,
2009-12-02, 02:36:04,VALID,1010.27,VALID,0,VALID,52.7397,VALID,0.105969,VALID,23.4407,VALID,97,VALID,1.26758,
2009-12-02, 02:37:04,VALID,1010.26,VALID,0,VALID,52.7397,VALID,0,VALID,23.4,VALID,104,VALID,1.08633,
2009-12-02, 02:38:04,VALID,1010.25,VALID,0,VALID,52.7245,VALID,0,VALID,23.4194,VALID,105,VALID,0.840234,
2009-12-02, 02:39:04,VALID,1010.23,VALID,0,VALID,52.7245,VALID,0.105969,VALID,23.4194,VALID,78,VALID,1.10938,
2009-12-02, 02:40:04,VALID,1010.24,VALID,0,VALID,52.755,VALID,0,VALID,23.4,VALID,65,VALID,1.28086,
2009-12-02, 02:41:04,VALID,1010.24,VALID,0,VALID,52.7702,VALID,0,VALID,23.4017,VALID,67,VALID,1.24492,
2009-12-02, 02:42:04,VALID,1010.23,VALID,0,VALID,52.7778,VALID,0,VALID,23.4017,VALID,54,VALID,1.06875,
2009-12-02, 02:43:04,VALID,1010.23,VALID,0,VALID,52.7473,VALID,0,VALID,23.4017,VALID,101,VALID,0.991797,
2009-12-02, 02:44:04,VALID,1010.24,VALID,0,VALID,52.7473,VALID,0,VALID,23.3823,VALID,105,VALID,1.60742,
2009-12-02, 02:45:04,VALID,1010.23,VALID,0,VALID,52.7702,VALID,0,VALID,23.384,VALID,72,VALID,1.21172,
2009-12-02, 02:46:04,VALID,1010.24,VALID,0,VALID,52.8007,VALID,0,VALID,23.4035,VALID,83,VALID,1.27344,
2009-12-02, 02:47:04,VALID,1010.2,VALID,0,VALID,52.7702,VALID,0,VALID,23.4035,VALID,85,VALID,1.18945,
2009-12-02, 02:48:04,VALID,1010.18,VALID,0,VALID,52.8083,VALID,0,VALID,23.3628,VALID,84,VALID,1.13555,
2009-12-02, 02:49:04,VALID,1010.2,VALID,0,VALID,52.8007,VALID,0,VALID,23.3645,VALID,81,VALID,1.13867,
2009-12-02, 02:50:04,VALID,1010.22,VALID,0,VALID,52.8236,VALID,0,VALID,23.3433,VALID,94,VALID,0.680859,
2009-12-02, 02:51:04,VALID,1010.19,VALID,0,VALID,52.8694,VALID,0,VALID,23.3433,VALID,52,VALID,0.475,
2009-12-02, 02:52:04,VALID,1010.19,VALID,0,VALID,52.8922,VALID,0,VALID,23.3451,VALID,109,VALID,1.09531,
2009-12-02, 02:53:04,VALID,1010.16,VALID,0,VALID,52.8617,VALID,0,VALID,23.3451,VALID,93,VALID,1.38008,
2009-12-02, 02:54:04,VALID,1010.17,VALID,0,VALID,52.8465,VALID,0,VALID,23.3238,VALID,79,VALID,1.43125,
2009-12-02, 02:55:04,VALID,1010.15,VALID,0,VALID,52.8388,VALID,0,VALID,23.3451,VALID,87,VALID,1.02539,
2009-12-02, 02:56:04,VALID,1010.19,VALID,0,VALID,52.8236,VALID,0.105969,VALID,23.2831,VALID,101,VALID,1.3543,
2009-12-02, 02:57:04,VALID,1010.19,VALID,0,VALID,52.7778,VALID,0,VALID,23.3238,VALID,86,VALID,1.36055,
2009-12-02, 02:58:04,VALID,1010.16,VALID,0,VALID,52.816,VALID,0.105969,VALID,23.3026,VALID,101,VALID,1.45,
2009-12-02, 02:59:04,VALID,1010.16,VALID,0,VALID,52.8083,VALID,0,VALID,23.3043,VALID,79,VALID,1.48906,
2009-12-02, 03:00:04,VALID,1010.16,VALID,0,VALID,52.8236,VALID,0.105969,VALID,23.2831,VALID,86,VALID,1.3207,
2009-12-02, 03:01:04,VALID,1010.15,VALID,0,VALID,52.8312,VALID,0.105969,VALID,23.2848,VALID,97,VALID,1.52383,
2009-12-02, 03:02:04,VALID,1010.21,VALID,0,VALID,52.9075,VALID,0.105969,VALID,23.2636,VALID,98,VALID,1.16992,
2009-12-02, 03:03:04,VALID,1010.2,VALID,0,VALID,52.8846,VALID,0,VALID,23.2831,VALID,114,VALID,1.25391,
2009-12-02, 03:04:04,VALID,1010.19,VALID,0,VALID,52.8465,VALID,0.105969,VALID,23.2831,VALID,97,VALID,0.748438,
2009-12-02, 03:05:04,VALID,1010.16,VALID,0,VALID,52.8388,VALID,0,VALID,23.3043,VALID,105,VALID,1.50664,
2009-12-02, 03:06:04,VALID,1010.16,VALID,0,VALID,52.816,VALID,0.105969,VALID,23.3043,VALID,94,VALID,1.175,
2009-12-02, 03:07:04,VALID,1010.15,VALID,0,VALID,52.8388,VALID,0.105969,VALID,23.2831,VALID,65,VALID,1.2,
2009-12-02, 03:08:04,VALID,1010.15,VALID,0,VALID,52.8617,VALID,0.105969,VALID,23.2831,VALID,95,VALID,0.928906,
2009-12-02, 03:09:04,VALID,1010.12,VALID,0,VALID,52.8388,VALID,0,VALID,23.2636,VALID,104,VALID,1.29141,
2009-12-02, 03:10:04,VALID,1010.14,VALID,0,VALID,52.8312,VALID,0,VALID,23.2636,VALID,79,VALID,0.904297,
2009-12-02, 03:11:04,VALID,1010.13,VALID,0,VALID,52.8083,VALID,0,VALID,23.2671,VALID,96,VALID,1.09414,
2009-12-02, 03:12:04,VALID,1010.11,VALID,0,VALID,52.8617,VALID,0,VALID,23.2264,VALID,89,VALID,1.3207,
2009-12-02, 03:13:04,VALID,1010.12,VALID,0,VALID,52.8846,VALID,0,VALID,23.2264,VALID,101,VALID,1.2332,
2009-12-02, 03:14:04,VALID,1010.11,VALID,0,VALID,52.8083,VALID,0,VALID,23.2069,VALID,104,VALID,0.976953,
2009-12-02, 03:15:04,VALID,1010.15,VALID,0,VALID,52.8465,VALID,0,VALID,23.2069,VALID,74,VALID,0.654297,
2009-12-02, 03:16:04,VALID,1010.13,VALID,0,VALID,52.8007,VALID,0,VALID,23.2069,VALID,88,VALID,1.28711,
2009-12-02, 03:17:04,VALID,1010.14,VALID,0,VALID,52.8465,VALID,0,VALID,23.2476,VALID,73,VALID,0.753906,
2009-12-02, 03:18:04,VALID,1010.13,VALID,0,VALID,52.8541,VALID,0,VALID,23.2087,VALID,80,VALID,0.905078,
2009-12-02, 03:19:04,VALID,1010.13,VALID,0,VALID,52.7931,VALID,0,VALID,23.2069,VALID,55,VALID,0.513672,
2009-12-02, 03:20:04,VALID,1010.15,VALID,0,VALID,52.8694,VALID,0,VALID,23.2069,VALID,54,VALID,0.537891,
2009-12-02, 03:21:04,VALID,1010.14,VALID,0,VALID,52.8694,VALID,0,VALID,23.2087,VALID,91,VALID,1.00234,
2009-12-02, 03:22:04,VALID,1010.14,VALID,0,VALID,52.8388,VALID,0,VALID,23.2282,VALID,97,VALID,1.24883,
2009-12-02, 03:23:04,VALID,1010.1,VALID,0,VALID,52.8999,VALID,0,VALID,23.2069,VALID,85,VALID,0.890625,
2009-12-02, 03:24:04,VALID,1010.11,VALID,0,VALID,52.8465,VALID,0,VALID,23.2069,VALID,62,VALID,0.957031,
2009-12-02, 03:25:04,VALID,1010.12,VALID,0,VALID,52.8617,VALID,0,VALID,23.1679,VALID,64,VALID,1.15,
2009-12-02, 03:26:04,VALID,1010.1,VALID,0,VALID,52.8846,VALID,0.105969,VALID,23.1874,VALID,81,VALID,0.344141,
2009-12-02, 03:27:04,VALID,1010.11,VALID,0,VALID,52.8312,VALID,0,VALID,23.1857,VALID,57,VALID,0.917188,
2009-12-02, 03:28:04,VALID,1010.08,VALID,0,VALID,52.8846,VALID,0.105969,VALID,23.1662,VALID,35,VALID,0.905859,
2009-12-02, 03:29:04,VALID,1010.08,VALID,0,VALID,52.8694,VALID,0,VALID,23.1874,VALID,85,VALID,1.48164,
2009-12-02, 03:30:04,VALID,1010.08,VALID,0,VALID,52.9304,VALID,0,VALID,23.1467,VALID,88,VALID,1.72891,
2009-12-02, 03:31:04,VALID,1010.08,VALID,0,VALID,52.8617,VALID,0.105969,VALID,23.1679,VALID,79,VALID,1.00977,
2009-12-02, 03:32:04,VALID,1010.09,VALID,0,VALID,52.8465,VALID,0.105969,VALID,23.1874,VALID,69,VALID,0.983594,
2009-12-02, 03:33:04,VALID,1010.07,VALID,0,VALID,52.7931,VALID,0.105969,VALID,23.1662,VALID,64,VALID,0.581641,
2009-12-02, 03:34:04,VALID,1010.11,VALID,0,VALID,52.8465,VALID,0,VALID,23.1467,VALID,51,VALID,0.599609,
2009-12-02, 03:35:04,VALID,1010.13,VALID,0,VALID,52.8694,VALID,0.105969,VALID,23.1679,VALID,44,VALID,0.784766,
2009-12-02, 03:36:04,VALID,1010.12,VALID,0,VALID,52.816,VALID,0,VALID,23.1485,VALID,62,VALID,0.981641,
2009-12-02, 03:37:04,VALID,1010.12,VALID,0,VALID,52.7778,VALID,0,VALID,23.1485,VALID,69,VALID,0.767578,
2009-12-02, 03:38:04,VALID,1010.1,VALID,0,VALID,52.8083,VALID,0,VALID,23.1485,VALID,65,VALID,0.925,
2009-12-02, 03:39:04,VALID,1010.13,VALID,0,VALID,52.7931,VALID,0,VALID,23.1679,VALID,97,VALID,0.753125,
2009-12-02, 03:40:04,VALID,1010.14,VALID,0,VALID,52.8388,VALID,0,VALID,23.1679,VALID,96,VALID,0.492969,
2009-12-02, 03:41:04,VALID,1010.11,VALID,0,VALID,52.8007,VALID,0,VALID,23.1679,VALID,93,VALID,0.599609,
2009-12-02, 03:42:04,VALID,1010.11,VALID,0,VALID,52.8007,VALID,0,VALID,23.1679,VALID,80,VALID,0.890234,
2009-12-02, 03:43:04,VALID,1010.1,VALID,0,VALID,52.8236,VALID,0,VALID,23.1679,VALID,53,VALID,0.876953,
2009-12-02, 03:44:04,VALID,1010.11,VALID,0,VALID,52.8236,VALID,0.105969,VALID,23.1272,VALID,41,VALID,0.383984,
2009-12-02, 03:45:04,VALID,1010.12,VALID,0,VALID,52.8236,VALID,0.105969,VALID,23.1467,VALID,61,VALID,0.229297,